Time,TemperatureF,DewpointF,PressureIn,WindDirection,WindDirectionDegrees,WindSpeedMPH,WindSpeedGustMPH,Humidity,HourlyPrecipIn,Conditions,Clouds,dailyrainin,SoftwareType,DateUTC
2013-03-07 00:02:00,34.1,31.8,30.21,NNE,32,0.0,1.0,91,0.00,,,0.00,VWS V14.01,2013-03-07 05:02:00,
2013-03-07 00:16:00,33.9,31.6,30.21,NNE,32,0.0,0.0,91,0.00,,,0.00,VWS V14.01,2013-03-07 05:16:00,
2013-03-07 00:31:00,33.8,31.7,30.22,NNE,32,0.0,0.0,92,0.00,,,0.00,VWS V14.01,2013-03-07 05:31:00,
2013-03-07 00:46:00,33.7,31.6,30.22,NNE,32,0.0,0.0,92,0.00,,,0.00,VWS V14.01,2013-03-07 05:46:00,
2013-03-07 01:01:00,33.7,31.6,30.22,NNE,32,0.0,0.0,92,0.00,,,0.00,VWS V14.01,2013-03-07 06:01:00,
2013-03-07 01:16:00,33.6,31.5,30.22,NNE,32,0.0,0.0,92,0.00,,,0.00,VWS V14.01,2013-03-07 06:16:00,
2013-03-07 01:31:00,33.5,31.7,30.23,NNE,32,0.0,0.0,93,0.00,,,0.00,VWS V14.01,2013-03-07 06:31:00,
2013-03-07 01:46:00,33.5,31.7,30.23,NNE,32,0.0,0.0,93,0.00,,,0.00,VWS V14.01,2013-03-07 06:46:00,
2013-03-07 02:01:00,33.6,32.1,30.23,NNE,32,0.0,0.0,94,0.00,,,0.00,VWS V14.01,2013-03-07 07:01:00,
2013-03-07 02:16:00,33.7,32.2,30.23,NNE,32,0.0,0.0,94,0.00,,,0.00,VWS V14.01,2013-03-07 07:16:00,
2013-03-07 02:31:00,34.0,32.5,30.22,NNE,32,0.0,3.0,94,0.00,,,0.00,VWS V14.01,2013-03-07 07:31:00,
2013-03-07 02:46:00,34.1,32.6,30.22,NNE,32,0.0,2.0,94,0.00,,,0.00,VWS V14.01,2013-03-07 07:46:00,
2013-03-07 03:01:00,34.2,32.7,30.22,NNE,32,0.0,4.0,94,0.00,,,0.00,VWS V14.01,2013-03-07 08:01:00,
2013-03-07 03:16:00,34.1,32.6,30.22,NNE,32,0.0,3.0,94,0.00,,,0.00,VWS V14.01,2013-03-07 08:16:00,
2013-03-07 03:31:00,34.1,32.6,30.23,NE,42,0.0,5.0,94,0.00,,,0.00,VWS V14.01,2013-03-07 08:31:00,
2013-03-07 03:46:00,34.1,32.6,30.23,NE,40,1.0,3.0,94,0.00,,,0.00,VWS V14.01,2013-03-07 08:46:00,
2013-03-07 04:01:00,34.0,32.5,30.23,NE,40,0.0,4.0,94,0.00,,,0.00,VWS V14.01,2013-03-07 09:01:00,
2013-03-07 04:16:00,33.9,32.4,30.24,NE,38,0.0,4.0,94,0.00,,,0.00,VWS V14.01,2013-03-07 09:16:00,
2013-03-07 04:31:00,33.8,32.3,30.23,NE,38,0.0,3.0,94,0.00,,,0.00,VWS V14.01,2013-03-07 09:31:00,
2013-03-07 04:46:00,33.7,32.2,30.23,NE,38,0.0,2.0,94,0.00,,,0.00,VWS V14.01,2013-03-07 09:46:00,
2013-03-07 05:01:00,33.7,32.2,30.24,NE,39,0.0,3.0,94,0.00,,,0.00,VWS V14.01,2013-03-07 10:01:00,
2013-03-07 05:16:00,33.7,32.2,30.23,NE,40,0.0,2.0,94,0.00,,,0.00,VWS V14.01,2013-03-07 10:16:00,
2013-03-07 05:31:00,33.5,31.7,30.23,NE,38,0.0,3.0,93,0.00,,,0.00,VWS V14.01,2013-03-07 10:31:00,
2013-03-07 05:46:00,33.5,32.0,30.23,NE,39,0.0,2.0,94,0.00,,,0.00,VWS V14.01,2013-03-07 10:46:00,
2013-03-07 06:01:00,33.4,31.9,30.23,NE,39,0.0,3.0,94,0.00,,,0.00,VWS V14.01,2013-03-07 11:01:00,
2013-03-07 06:17:00,33.3,31.8,30.23,NE,38,0.0,0.0,94,0.00,,,0.00,VWS V14.01,2013-03-07 11:17:00,
2013-03-07 06:31:00,33.3,31.8,30.24,NE,39,0.0,0.0,94,0.00,,,0.00,VWS V14.01,2013-03-07 11:31:00,
2013-03-07 06:46:00,33.3,31.8,30.24,NE,39,0.0,0.0,94,0.00,,,0.00,VWS V14.01,2013-03-07 11:46:00,
2013-03-07 07:02:00,33.2,31.7,30.24,NE,38,0.0,0.0,94,0.00,,,0.00,VWS V14.01,2013-03-07 12:02:00,
2013-03-07 07:16:00,33.3,31.8,30.24,NE,39,0.0,0.0,94,0.00,,,0.00,VWS V14.01,2013-03-07 12:16:00,
2013-03-07 07:31:00,33.5,32.0,30.25,NE,39,0.0,0.0,94,0.00,,,0.00,VWS V14.01,2013-03-07 12:31:00,
2013-03-07 07:46:00,33.8,32.3,30.25,NE,39,0.0,0.0,94,0.00,,,0.00,VWS V14.01,2013-03-07 12:46:00,
2013-03-07 08:01:00,34.1,32.6,30.26,NE,38,0.0,0.0,94,0.00,,,0.00,VWS V14.01,2013-03-07 13:01:00,
2013-03-07 08:16:00,34.6,32.8,30.26,NE,38,0.0,3.0,93,0.00,,,0.00,VWS V14.01,2013-03-07 13:16:00,
2013-03-07 08:31:00,34.7,32.6,30.26,NE,39,1.0,3.0,92,0.00,,,0.00,VWS V14.01,2013-03-07 13:31:00,
2013-03-07 08:46:00,35.1,33.0,30.26,NE,38,0.0,4.0,92,0.00,,,0.00,VWS V14.01,2013-03-07 13:46:00,
2013-03-07 09:01:00,35.0,32.4,30.26,ENE,61,3.0,6.0,90,0.00,,,0.00,VWS V14.01,2013-03-07 14:01:00,
2013-03-07 09:16:00,35.2,32.6,30.27,NNE,30,0.0,4.0,90,0.00,,,0.00,VWS V14.01,2013-03-07 14:16:00,
2013-03-07 09:31:00,35.0,31.8,30.27,NE,36,2.0,4.0,88,0.00,,,0.00,VWS V14.01,2013-03-07 14:31:00,
2013-03-07 09:46:00,35.1,31.9,30.28,NE,43,0.0,5.0,88,0.00,,,0.00,VWS V14.01,2013-03-07 14:46:00,
2013-03-07 10:01:00,35.0,31.5,30.28,NE,36,4.0,5.0,87,0.00,,,0.00,VWS V14.01,2013-03-07 15:01:00,
2013-03-07 10:16:00,34.9,31.7,30.28,NNE,32,3.0,5.0,88,0.00,,,0.00,VWS V14.01,2013-03-07 15:16:00,
2013-03-07 10:31:00,35.0,31.8,30.29,East,79,0.0,6.0,88,0.00,,,0.00,VWS V14.01,2013-03-07 15:31:00,
2013-03-07 11:01:00,35.7,31.6,30.29,NNE,30,1.0,6.0,85,0.00,,,0.00,VWS V14.01,2013-03-07 16:01:00,
2013-03-07 11:17:00,35.9,31.5,30.29,NNE,30,0.0,5.0,84,0.00,,,0.00,VWS V14.01,2013-03-07 16:17:00,
2013-03-07 11:31:00,35.7,31.4,30.30,NNE,30,1.0,6.0,84,0.00,,,0.00,VWS V14.01,2013-03-07 16:31:00,
2013-03-07 11:46:00,35.8,31.5,30.30,North,5,3.0,5.0,84,0.00,,,0.00,VWS V14.01,2013-03-07 16:46:00,
2013-03-07 12:01:00,35.8,31.5,30.30,NNE,17,2.0,6.0,84,0.00,,,0.00,VWS V14.01,2013-03-07 17:01:00,
2013-03-07 12:16:00,35.9,31.5,30.30,ENE,58,3.0,5.0,84,0.00,,,0.00,VWS V14.01,2013-03-07 17:16:00,
2013-03-07 12:31:00,35.7,31.0,30.30,NE,51,0.0,6.0,83,0.00,,,0.00,VWS V14.01,2013-03-07 17:31:00,
2013-03-07 12:46:00,35.6,31.2,30.29,NNE,32,2.0,6.0,84,0.00,,,0.00,VWS V14.01,2013-03-07 17:46:00,
2013-03-07 13:01:00,35.2,30.9,30.29,NE,35,3.0,7.0,84,0.00,,,0.00,VWS V14.01,2013-03-07 18:01:00,
2013-03-07 13:17:00,35.5,30.9,30.29,NE,48,4.0,8.0,83,0.00,,,0.00,VWS V14.01,2013-03-07 18:17:00,
2013-03-07 13:31:00,35.5,30.9,30.29,NE,51,0.0,8.0,83,0.00,,,0.00,VWS V14.01,2013-03-07 18:31:00,
2013-03-07 13:46:00,35.0,30.4,30.29,North,355,2.0,6.0,83,0.00,,,0.00,VWS V14.01,2013-03-07 18:46:00,
2013-03-07 14:01:00,35.4,30.5,30.29,North,350,0.0,7.0,82,0.00,,,0.00,VWS V14.01,2013-03-07 19:01:00,
2013-03-07 14:16:00,35.6,29.7,30.30,NE,34,1.0,6.0,79,0.00,,,0.00,VWS V14.01,2013-03-07 19:16:00,
2013-03-07 14:32:00,35.2,29.0,30.30,NNE,26,2.0,7.0,78,0.00,,,0.00,VWS V14.01,2013-03-07 19:32:00,
2013-03-07 14:47:00,34.9,29.1,30.30,NE,41,4.0,7.0,79,0.00,,,0.00,VWS V14.01,2013-03-07 19:47:00,
2013-03-07 15:02:00,35.6,29.1,30.30,NE,41,1.0,7.0,77,0.00,,,0.00,VWS V14.01,2013-03-07 20:02:00,
2013-03-07 15:16:00,35.4,28.9,30.30,NNE,17,1.0,7.0,77,0.00,,,0.00,VWS V14.01,2013-03-07 20:16:00,
2013-03-07 15:32:00,35.4,29.9,30.31,NNE,31,2.0,3.0,80,0.00,,,0.00,VWS V14.01,2013-03-07 20:32:00,
2013-03-07 15:47:00,35.3,30.1,30.31,NNE,33,2.0,5.0,81,0.00,,,0.00,VWS V14.01,2013-03-07 20:47:00,
2013-03-07 16:01:00,35.6,30.4,30.31,NE,35,2.0,4.0,81,0.00,,,0.00,VWS V14.01,2013-03-07 21:01:00,
2013-03-07 16:16:00,35.9,28.1,30.31,NNE,14,3.0,5.0,73,0.00,,,0.00,VWS V14.01,2013-03-07 21:16:00,
2013-03-07 16:31:00,35.7,27.9,30.31,NE,47,0.0,5.0,73,0.00,,,0.00,VWS V14.01,2013-03-07 21:31:00,
2013-03-07 16:46:00,35.6,27.5,30.32,North,5,0.0,4.0,72,0.00,,,0.00,VWS V14.01,2013-03-07 21:46:00,
2013-03-07 17:02:00,35.3,27.2,30.32,North,9,2.0,4.0,72,0.00,,,0.00,VWS V14.01,2013-03-07 22:02:00,
2013-03-07 17:16:00,35.0,26.9,30.33,NNE,32,0.0,5.0,72,0.00,,,0.00,VWS V14.01,2013-03-07 22:16:00,
2013-03-07 17:31:00,34.5,27.1,30.33,NE,34,0.0,4.0,74,0.00,,,0.00,VWS V14.01,2013-03-07 22:31:00,
2013-03-07 17:47:00,34.0,25.9,30.33,NE,34,0.0,3.0,72,0.00,,,0.00,VWS V14.01,2013-03-07 22:47:00,
2013-03-07 18:01:00,33.8,26.1,30.33,NE,34,0.0,1.0,73,0.00,,,0.00,VWS V14.01,2013-03-07 23:01:00,
2013-03-07 18:17:00,33.5,26.4,30.34,NE,34,0.0,0.0,75,0.00,,,0.00,VWS V14.01,2013-03-07 23:17:00,
2013-03-07 18:31:00,33.3,26.2,30.34,NNE,33,0.0,0.0,75,0.00,,,0.00,VWS V14.01,2013-03-07 23:31:00,
2013-03-07 18:47:00,32.9,26.2,30.34,NNE,33,0.0,0.0,76,0.00,,,0.00,VWS V14.01,2013-03-07 23:47:00,
2013-03-07 19:02:00,32.8,26.4,30.35,NNE,33,0.0,0.0,77,0.00,,,0.00,VWS V14.01,2013-03-08 00:02:00,
2013-03-07 19:16:00,32.9,26.8,30.35,NE,34,2.0,2.0,78,0.00,,,0.00,VWS V14.01,2013-03-08 00:16:00,
2013-03-07 19:31:00,32.9,26.8,30.35,NNE,33,0.0,3.0,78,0.00,,,0.00,VWS V14.01,2013-03-08 00:31:00,
2013-03-07 19:46:00,32.7,26.9,30.35,NNE,33,0.0,4.0,79,0.00,,,0.00,VWS V14.01,2013-03-08 00:46:00,
2013-03-07 20:01:00,32.5,27.3,30.35,NE,34,1.0,2.0,81,0.00,,,0.00,VWS V14.01,2013-03-08 01:01:00,
2013-03-07 20:16:00,32.2,28.2,30.36,NNE,33,0.0,3.0,85,0.00,,,0.00,VWS V14.01,2013-03-08 01:16:00,
2013-03-07 20:31:00,31.7,28.6,30.36,NE,34,2.0,2.0,88,0.00,,,0.00,VWS V14.01,2013-03-08 01:31:00,
2013-03-07 20:46:00,31.4,28.5,30.36,NE,34,0.0,3.0,89,0.00,,,0.00,VWS V14.01,2013-03-08 01:46:00,
2013-03-07 21:02:00,31.2,28.6,30.36,NNE,33,0.0,1.0,90,0.00,,,0.00,VWS V14.01,2013-03-08 02:02:00,
2013-03-07 21:16:00,31.2,28.9,30.36,NNE,33,0.0,0.0,91,0.00,,,0.00,VWS V14.01,2013-03-08 02:16:00,
2013-03-07 21:32:00,31.1,28.8,30.36,NE,34,0.0,0.0,91,0.00,,,0.00,VWS V14.01,2013-03-08 02:32:00,
2013-03-07 21:47:00,31.0,29.0,30.36,NE,34,0.0,1.0,92,0.00,,,0.00,VWS V14.01,2013-03-08 02:47:00,
2013-03-07 22:02:00,31.0,29.0,30.36,NE,34,0.0,2.0,92,0.00,,,0.00,VWS V14.01,2013-03-08 03:02:00,
2013-03-07 22:16:00,31.0,29.2,30.35,NNE,33,0.0,2.0,93,0.00,,,0.00,VWS V14.01,2013-03-08 03:16:00,
2013-03-07 22:31:00,31.0,29.2,30.36,NNE,33,0.0,1.0,93,0.00,,,0.00,VWS V14.01,2013-03-08 03:31:00,
2013-03-07 22:47:00,31.1,29.3,30.35,NNE,33,0.0,3.0,93,0.00,,,0.00,VWS V14.01,2013-03-08 03:47:00,
2013-03-07 23:02:00,30.9,29.1,30.35,NE,34,0.0,2.0,93,0.00,,,0.00,VWS V14.01,2013-03-08 04:02:00,
2013-03-07 23:17:00,30.9,29.4,30.35,NE,34,0.0,1.0,94,0.00,,,0.00,VWS V14.01,2013-03-08 04:17:00,
2013-03-07 23:32:00,30.8,29.3,30.35,NE,34,0.0,0.0,94,0.00,,,0.00,VWS V14.01,2013-03-08 04:32:00,
2013-03-07 23:47:00,30.7,29.2,30.35,NNE,33,0.0,2.0,94,0.00,,,0.00,VWS V14.01,2013-03-08 04:47:00,